COSMOS 2327

导读

COSMOS 2327是独联体(CIS)于1996年1月16日发射的军用卫星,隶属于苏/俄经典的"宇宙"(Cosmos)卫星系列。该系列自1962年起延续命名传统,涵盖军事侦察、技术试验等多类保密任务,以模糊编号隐藏卫星真实用途。作为冷战后独联体初期航天活动产物,它延续了苏联航天体系,服务于战略空间监测与国防体系建设,是俄军事航天网络重要组成部分,具体任务参数因保密未公开,目前已完成服役使命。

基本信息
目录编号:
23773
目录名称:
COSMOS 2327
国际标识:
1996-004A
轨道中心:
EARTH
卫星名称:
COSMOS 2327
卫星全名:
--
卫星状态:
在轨 (已飞行11197 天)
发射日期:
1996-01-16 UTC
国别 :
俄罗斯(独联体) (CIS)
星等 :
--
该卫星已列入 空间交会检测服务 Space Conjunction Data Service (SCDS) ,当前飞行风险评估等级: 无高风险
轨道信息
数据来源 国际轨道数据 AOE轨道数据
星历时间 2026-09-12T12:54:48+0800
11小时前
查看轨道信息
2026-09-10T09:00:00+0800
2天前
查看轨道信息
半长轴 7360.621km 7360.627km
偏心率 0.0048219 0.0048319
轨道倾角 82.980° 82.981°
近地点辐角 17.416° 23.398°
升交点赤经 60.735° 62.327°
平近点角 154.858° 249.530°
近地点 946.991km 946.924km
远地点 1017.977km 1018.056km
周期 104.745分钟 104.745分钟
每日圈数 13.747734 13.747718
详细信息
使用方式:
暂无
2D轨道图
3D轨道图
轨道高度分析图
轨道倾角分析图
轨道综合分析图
查看轨道综合分析图
交会数据列表
事件ID 空间交会对象 最接近时刻(TCA) 交会距离 交会风险概率(CRP) 交会风险指数(CRI) 操作
CDM_260914-131401-132702-377325
SL-8 R/B (11327)
2026-09-14T
13:14:12+0000
1.690 km
极远距离
3.984637E-6 低风险 0.47
CDM_260912-155002-377304-527328
2026-09-12T
15:50:50+0000
2.425 km
极远距离
1.253364E-6 低风险 0.37
与全量物体交会距离演化趋势
与全量物体交会风险概率演化趋势